Waarnemingen

Advertentie
Mijn weer
Bale-Mulhouse, Frankrijk (7299): temperatuur & dauwpunt: 20.04.2018 11:00:00 - 26.04.2018 11:00:00 (CEST)Bale-Mulhouse, Frankrijk (7299): temperatuur 5cm: 20.04.2018 11:00:00 - 26.04.2018 11:00:00 (CEST)Bale-Mulhouse, Frankrijk (7299): temperatuur -20cm & temperatuur -100cm: 20.04.2018 11:00:00 - 26.04.2018 11:00:00 (CEST)Bale-Mulhouse, Frankrijk (7299): windsnelheid & windstoten: 20.04.2018 11:00:00 - 26.04.2018 11:00:00 (CEST)Bale-Mulhouse, Frankrijk (7299): windrichting: 20.04.2018 11:00:00 - 26.04.2018 11:00:00 (CEST)Bale-Mulhouse, Frankrijk (7299): luchtdruk: 20.04.2018 11:00:00 - 26.04.2018 11:00:00 (CEST)Bale-Mulhouse, Frankrijk (7299): zicht: 20.04.2018 11:00:00 - 26.04.2018 11:00:00 (CEST)Bale-Mulhouse, Frankrijk (7299): Zonneschijnduur: 20.04.2018 11:00:00 - 26.04.2018 11:00:00 (CEST)Bale-Mulhouse, Frankrijk (7299): neerslag: 20.04.2018 11:00:00 - 26.04.2018 11:00:00 (CEST)
Datum & Tijd tt [°C] td [°C] tt 5cm [°C] tt -20cm [°C] tt -100cm [°C] ff [km/u] ff [kn] fx [km/u] fx [kn] dd ppp [hPa] vv [km] sd [min] rr [mm]
26.04.2018 11:00:00 12,8 5,2 14,1 15,9 13,8 21 11 36 20 W 1020,9 40 0 0,0
26.04.2018 10:00:00 12,8 5,7 12,2 16,0 13,8 19 10 31 17 WNW 1020,8 40 7 0,0
26.04.2018 09:00:00 11,5 6,4 11,3 16,1 13,8 16 8 32 17 WNW 1021,2 30 19 0,0
26.04.2018 08:00:00 11,8 7,3 9,1 16,3 13,8 16 9 26 14 W 1020,6 30 23 0,0
26.04.2018 07:00:00 10,0 7,1 8,1 16,4 13,8 10 5 18 10 ZW 1020,3 30 8 0,0
26.04.2018 06:00:00 10,6 7,1 9,1 16,6 13,7 12 7 26 14 W 1020,0 23 0 0,0
26.04.2018 05:00:00 11,5 7,6 11,0 16,8 13,8 18 10 31 17 W 1019,7 30 0 0,0
26.04.2018 04:00:00 11,5 8,0 10,9 17,0 13,8 18 10 38 21 W 1019,3 22 0 0,0
26.04.2018 03:00:00 12,7 9,1 12,0 17,1 13,7 20 11 39 21 W 1018,5 23 0 0,0
26.04.2018 02:00:00 14,2 9,0 11,0 17,3 13,7 22 12 38 21 W 1017,7 17 0 0,0
26.04.2018 01:00:00 12,8 8,3 8,5 17,5 13,7 5 3 16 9 WZW 1017,8 27 0 0,0
26.04.2018 00:00:00 13,1 8,0 9,7 17,7 13,7 5 3 25 13 Z 1017,9 30 0 0,0
25.04.2018 23:00:00 14,1 8,1 12,6 17,9 13,7 16 8 33 18 W 1017,6 30 0 0,0
25.04.2018 22:00:00 15,4 7,4 14,2 18,0 13,7 24 13 47 26 W 1016,8 27 0 0,0
25.04.2018 21:00:00 17,4 8,5 16,1 18,1 13,7 14 7 41 22 W 1015,2 30 16 0,0
25.04.2018 20:00:00 19,3 8,3 19,1 18,1 13,7 25 14 39 21 WNW 1014,0 30 49 0,0
25.04.2018 19:00:00 20,6 8,9 20,8 18,0 13,7 26 14 56 30 W 1013,3 30 53 0,0
25.04.2018 18:00:00 21,8 10,0 22,2 17,8 13,7 26 14 55 30 W 1013,3 30 53 0,0
25.04.2018 17:00:00 21,6 10,1 21,2 17,5 13,7 31 17 52 28 W 1013,6 25 28 0,0
25.04.2018 16:00:00 21,9 10,7 23,3 17,2 13,7 32 17 54 29 W 1013,9 25 53 0,0
25.04.2018 15:00:00 21,4 10,5 22,5 16,9 13,7 36 19 55 30 W 1014,3 30 43 0,0
25.04.2018 14:00:00 21,3 11,3 22,4 16,5 13,7 29 16 57 31 W 1014,8 30 40 0,0
25.04.2018 13:00:00 21,5 10,6 23,8 16,3 13,7 33 18 52 28 W 1014,6 30 58 0,0
25.04.2018 12:00:00 20,7 10,8 22,4 16,1 13,7 28 15 54 29 W 1014,9 30 60 0,0
25.04.2018 11:00:00 19,2 11,2 18,2 16,0 13,6 26 14 48 26 W 1015,4 30 41 0,0
25.04.2018 10:00:00 18,3 10,6 17,0 16,1 13,7 26 14 45 25 WZW 1015,8 30 26 0,0
25.04.2018 09:00:00 17,2 10,3 14,6 16,1 13,6 18 10 33 18 W 1015,8 25 42 0,0
25.04.2018 08:00:00 13,8 9,6 11,3 16,3 13,6 8 5 17 9 Z 1015,5 25 60 0,0
25.04.2018 07:00:00 11,9 9,1 8,2 16,4 13,6 9 5 15 8 Z 1015,1 25 0 0,0
25.04.2018 06:00:00 11,7 8,9 9,9 16,6 13,6 9 5 16 8 Z 1015,0 25 0 0,0
25.04.2018 05:00:00 12,0 9,6 9,2 16,8 13,6 10 5 14 7 Z 1015,3 20 0 0,0
25.04.2018 04:00:00 12,4 9,4 8,2 17,0 13,6 7 4 12 7 Z 1015,5 14 0 0,0
25.04.2018 03:00:00 10,7 8,6 7,4 17,3 13,6 4 2 10 5 Z 1015,9 15 0 0,0
25.04.2018 02:00:00 11,7 8,0 8,2 17,5 13,6 10 5 16 9 ZZO 1015,8 16 0 0,0
25.04.2018 01:00:00 11,8 8,5 8,2 17,8 13,6 3 2 10 5 ZZO 1016,0 18 0 0,0
25.04.2018 00:00:00 13,3 8,4 9,9 17,9 13,6 6 3 9 5 Z 1016,1 40 0 0,0
24.04.2018 23:00:00 14,1 9,1 10,5 18,1 13,6 4 2 10 5 ZZW 1016,4 40 0 0,0
24.04.2018 22:00:00 15,6 8,3 11,3 18,3 13,6 4 2 9 5 ZW 1016,4 40 0 0,0
24.04.2018 21:00:00 16,4 9,1 12,7 18,4 13,6 6 3 12 6 WNW 1016,0 40 0 0,0
24.04.2018 20:00:00 19,3 9,2 17,7 18,3 13,5 8 5 21 12 W 1015,5 40 34 0,0
24.04.2018 19:00:00 21,4 9,6 23,2 18,2 13,6 14 8 29 16 W 1015,5 40 60 0,0
24.04.2018 18:00:00 22,2 8,7 24,1 17,9 13,5 15 8 29 16 WNW 1015,7 40 60 0,0
24.04.2018 17:00:00 22,8 8,9 25,5 17,6 13,6 19 11 32 18 WNW 1016,0 40 60 0,0
24.04.2018 16:00:00 22,7 9,1 25,0 17,2 13,6 16 9 31 17 W 1016,6 40 58 0,0
24.04.2018 15:00:00 22,3 8,4 23,9 16,8 13,6 19 10 33 18 NW 1017,3 40 46 0,0
24.04.2018 14:00:00 21,5 9,1 23,0 16,3 13,6 14 8 32 17 W 1018,0 40 53 0,0
24.04.2018 13:00:00 20,6 10,4 22,7 16,0 13,6 14 8 26 14 W 1018,7 40 54 0,0
24.04.2018 12:00:00 19,5 9,9 22,3 15,7 13,6 7 4 19 11 WNW 1019,5 23 41 0,0
24.04.2018 11:00:00 18,9 11,0 21,9 15,6 13,6 6 3 16 8 ZO 1019,9 25 47 0,0
24.04.2018 10:00:00 17,7 11,3 18,2 15,5 13,5 2 1 14 8 ZW 1020,4 25 60 0,0
24.04.2018 09:00:00 15,5 11,3 13,8 15,6 13,6 8 4 13 7 ZO 1020,7 15 60 0,0
24.04.2018 08:00:00 13,0 11,7 8,8 15,7 13,5 5 3 12 6 Z 1020,9 15 7 0,0
24.04.2018 07:00:00 10,8 10,2 8,0 15,9 13,5 5 3 13 7 ZZO 1020,8 15 0 0,0
24.04.2018 06:00:00 10,1 9,5 7,3 16,1 13,5 0 0 9 5 N 1020,8 15 0 0,0
24.04.2018 05:00:00 10,0 9,2 7,5 16,3 13,5 4 2 7 4 WZW 1020,9 8 0 0,0
24.04.2018 04:00:00 11,5 10,9 8,6 16,4 13,5 5 3 6 4 ZZW 1020,6 1,7 0 0,0
24.04.2018 03:00:00 12,5 11,6 10,9 16,6 13,5 0 0 9 5 N 1020,5 11 0 0,0
24.04.2018 02:00:00 12,9 12,0 11,8 16,7 13,5 6 3 9 5 Z 1020,5 10 0 0,0
24.04.2018 01:00:00 12,8 12,0 11,3 16,9 13,5 3 1 9 5 ZZW 1020,8 10 0 0,0
24.04.2018 00:00:00 13,3 12,0 12,0 17,1 13,5 0 0 11 6 N 1020,9 20 0 0,0
23.04.2018 23:00:00 13,3 12,0 11,3 17,2 13,5 8 5 14 8 ZZO 1020,7 20 0 0,0
23.04.2018 22:00:00 12,7 11,4 11,4 17,4 13,4 5 3 9 5 WZW 1020,7 20 0 0,0
23.04.2018 21:00:00 13,3 11,7 11,5 17,5 13,4 7 4 12 6 NW 1019,9 18 0 0,0
23.04.2018 20:00:00 15,7 12,3 14,9 17,5 13,4 9 5 14 7 WZW 1019,0 20 16 0,0
23.04.2018 19:00:00 15,5 12,8 14,6 17,7 13,4 5 3 18 10 WZW 1019,0 20 0 0,2
23.04.2018 18:00:00 15,4 12,7 14,6 17,7 13,4 9 5 20 11 WZW 1019,3 20 0 0,2
23.04.2018 17:00:00 15,5 12,6 14,6 17,7 13,4 15 8 39 21 WNW 1018,8 15 0 0,2
23.04.2018 16:00:00 16,3 11,7 15,2 17,7 13,4 21 12 39 21 W 1019,2 20 0 0,0
23.04.2018 15:00:00 18,9 12,6 16,9 17,6 13,4 14 8 22 12 W 1018,6 25 12 0,0
23.04.2018 14:00:00 17,0 11,9 14,9 17,6 13,4 11 6 31 17 W 1018,6 20 0 0,2
23.04.2018 13:00:00 19,5 9,7 20,2 17,4 13,3 18 10 33 18 NW 1018,1 30 0 0,0
23.04.2018 12:00:00 19,4 9,8 20,2 17,3 13,3 26 14 42 23 W 1018,2 20 2 0,0
23.04.2018 11:00:00 21,6 8,8 25,1 17,2 13,3 16 9 25 14 WZW 1017,1 35 54 0,0
23.04.2018 10:00:00 20,2 7,9 21,4 17,1 13,2 6 3 16 9 OZO 1017,1 35 60 0,0
23.04.2018 09:00:00 18,3 9,4 16,9 17,2 13,3 5 3 8 5 Z 1017,3 30 37 0,0
23.04.2018 08:00:00 15,9 9,3 12,5 17,4 13,3 4 2 8 4 Z 1017,0 30 22 0,0
23.04.2018 07:00:00 14,0 9,2 10,6 17,6 13,2 5 3 10 5 Z 1016,9 15 0 0,0
23.04.2018 06:00:00 13,0 8,7 10,2 17,8 13,2 4 2 8 4 Z 1017,1 20 0 0,0
23.04.2018 05:00:00 13,8 9,2 11,2 18,0 13,2 2 1 5 3 WZW 1017,0 20 0 0,0
23.04.2018 04:00:00 15,2 9,3 12,6 18,2 13,2 3 2 5 3 OZO 1016,5 21 0 0,0
23.04.2018 03:00:00 15,7 9,1 13,7 18,3 13,1 3 2 10 5 ZZO 1016,3 20 0 0,0
23.04.2018 02:00:00 15,6 9,0 13,5 18,5 13,1 7 4 10 5 ZZO 1016,3 22 0 0,0
23.04.2018 01:00:00 16,9 8,3 13,4 18,7 13,1 4 2 9 5 ZO 1016,1 23 0 0,0
23.04.2018 00:00:00 16,9 8,3 13,6 18,9 13,1 5 3 9 5 ZZO 1015,9 20 0 0,0
22.04.2018 23:00:00 18,8 7,2 15,7 19,1 13,1 6 3 16 9 ZZO 1015,5 20 0 0,0
22.04.2018 22:00:00 19,9 6,6 16,0 19,3 13,0 9 5 17 9 ZW 1015,0 24 0 0,0
22.04.2018 21:00:00 21,2 5,9 18,6 19,3 13,0 14 7 22 12 W 1014,2 25 0 0,0
22.04.2018 20:00:00 23,2 6,5 21,1 19,3 13,0 14 8 24 13 W 1013,4 20 0 0,0
22.04.2018 19:00:00 25,6 6,7 24,4 19,1 13,0 16 9 33 18 W 1012,5 30 44 0,0
22.04.2018 18:00:00 28,0 6,1 27,7 18,8 13,0 13 7 29 16 WZW 1012,0 30 54 0,0
22.04.2018 17:00:00 27,9 4,8 31,2 18,4 13,0 17 9 25 13 W 1012,3 30 60 0,0
22.04.2018 16:00:00 28,2 5,7 31,6 17,9 13,0 10 5 38 20 W 1012,7 30 60 0,0
22.04.2018 15:00:00 28,0 4,3 29,8 17,5 12,9 16 9 34 19 W 1013,5 30 60 0,0
22.04.2018 14:00:00 27,5 6,8 28,6 17,1 12,9 16 9 30 16 W 1014,2 30 60 0,0
22.04.2018 13:00:00 26,6 5,5 28,7 16,7 12,9 18 10 28 15 W 1014,7 30 60 0,0
22.04.2018 12:00:00 25,7 7,3 27,7 16,5 12,9 5 3 18 10 ZO 1015,4 25 60 0,0
22.04.2018 11:00:00 22,7 8,4 24,8 16,3 12,9 10 5 21 11 ZZO 1016,1 25 60 0,0
22.04.2018 10:00:00 20,2 10,0 19,9 16,3 12,9 11 6 20 11 ZO 1016,5 25 60 0,0
22.04.2018 09:00:00 16,9 9,1 15,2 16,5 12,8 11 6 17 9 ZZO 1016,9 15 60 0,0
22.04.2018 08:00:00 15,0 8,2 11,5 16,6 12,8 10 5 18 10 Z 1016,8 15 60 0,0
22.04.2018 07:00:00 12,5 7,8 9,7 16,9 12,8 10 5 17 9 Z 1016,8 15 2 0,0
22.04.2018 06:00:00 12,6 7,7 9,4 17,1 12,8 14 7 18 10 Z 1016,6 10 0 0,0
22.04.2018 05:00:00 12,8 7,5 10,3 17,4 12,8 9 5 15 8 Z 1016,7 10 0 0,0
22.04.2018 04:00:00 13,4 7,6 8,3 17,6 12,7 10 5 15 8 Z 1016,7 9 0 0,0
22.04.2018 03:00:00 12,0 8,3 8,2 17,9 12,7 6 4 13 7 Z 1017,1 18 0 0,0
22.04.2018 02:00:00 12,2 7,7 8,7 18,2 12,7 7 4 8 4 ZZO 1017,5 19 0 0,0
22.04.2018 01:00:00 13,2 8,5 9,6 18,4 12,7 2 1 5 3 Z 1017,4 18 0 0,0
22.04.2018 00:00:00 14,3 8,3 10,1 18,7 12,7 0 0 7 4 N 1017,2 30 0 0,0
21.04.2018 23:00:00 15,7 8,0 11,9 18,8 12,6 5 3 11 6 ZW 1017,0 30 0 0,0
21.04.2018 22:00:00 17,6 9,0 13,3 19,0 12,7 4 2 10 5 Z 1016,5 30 0 0,0
21.04.2018 21:00:00 20,8 7,8 15,4 19,0 12,6 6 4 9 5 ZW 1015,9 30 4 0,0
21.04.2018 20:00:00 25,7 5,3 23,4 19,0 12,6 4 2 9 5 N 1015,2 40 60 0,0
21.04.2018 19:00:00 27,9 3,5 29,1 18,7 12,6 4 2 14 8 NW 1015,1 40 60 0,0
21.04.2018 18:00:00 28,7 3,5 30,9 18,3 12,6 4 2 16 9 W 1015,3 40 60 0,0
21.04.2018 17:00:00 28,5 5,3 31,7 17,9 12,6 6 4 19 11 NW 1015,7 40 60 0,0
21.04.2018 16:00:00 29,3 4,0 33,1 17,4 12,6 3 2 18 10 W 1016,5 30 60 0,0
21.04.2018 15:00:00 28,2 2,4 30,7 16,9 12,6 5 3 20 11 W 1017,3 30 60 0,0
21.04.2018 14:00:00 27,6 6,9 29,6 16,4 12,5 4 2 17 9 NW 1017,9 30 60 0,0
21.04.2018 13:00:00 26,3 6,8 28,8 16,0 12,5 4 2 12 7 ZW 1018,7 30 60 0,0
21.04.2018 12:00:00 24,3 6,5 28,8 15,7 12,5 4 2 14 8 Z 1019,6 30 60 0,0
21.04.2018 11:00:00 22,1 9,3 23,9 15,7 12,5 5 3 15 8 ZZO 1020,2 25 60 0,0
21.04.2018 10:00:00 19,0 8,9 20,2 15,6 12,5 9 5 18 10 ZO 1020,7 20 60 0,0
21.04.2018 09:00:00 16,5 9,2 13,7 15,7 12,4 10 5 14 8 ZO 1021,1 20 60 0,0
21.04.2018 08:00:00 13,3 8,8 7,9 15,9 12,5 9 5 16 9 Z 1021,4 20 60 0,0
21.04.2018 07:00:00 9,4 6,7 7,1 16,2 12,4 8 4 11 6 Z 1021,6 20 1 0,0
21.04.2018 06:00:00 10,5 7,2 6,3 16,4 12,4 7 4 15 8 Z 1021,1 20 0 0,0
21.04.2018 05:00:00 9,8 7,0 6,3 16,7 12,4 8 4 10 5 ZZO 1021,3 20 0 0,0
21.04.2018 04:00:00 10,1 7,3 6,9 16,9 12,4 0 0 6 3 N 1021,3 16 0 0,0
21.04.2018 03:00:00 10,0 6,3 6,9 17,2 12,4 5 3 7 4 ZW 1021,4 16 0 0,0
21.04.2018 02:00:00 11,5 7,8 7,9 17,5 12,3 3 1 5 3 WZW 1021,4 18 0 0,0
21.04.2018 01:00:00 12,6 8,1 8,9 17,7 12,3 2 1 4 2 ZZW 1021,3 18 0 0,0
21.04.2018 00:00:00 13,7 8,5 9,8 17,9 12,3 0 0 7 4 N 1021,3 30 0 0,0
20.04.2018 23:00:00 15,6 9,0 11,2 18,1 12,3 3 2 9 5 W 1021,1 30 0 0,0
20.04.2018 22:00:00 15,8 8,5 12,1 18,3 12,3 6 4 14 8 WNW 1021,1 30 0 0,0
20.04.2018 21:00:00 19,7 8,1 14,7 18,3 12,3 9 5 19 10 WNW 1020,3 30 0 0,0
20.04.2018 20:00:00 24,8 5,5 23,1 18,2 12,2 8 4 16 9 NNO 1019,5 30 49 0,0
20.04.2018 19:00:00 26,8 4,5 28,8 18,0 12,2 8 4 21 11 N 1019,4 30 60 0,0
20.04.2018 18:00:00 27,4 5,0 30,6 17,7 12,2 10 5 18 10 N 1019,5 30 60 0,0
20.04.2018 17:00:00 28,1 5,0 32,1 17,2 12,2 5 3 16 9 N 1020,0 30 60 0,0
20.04.2018 16:00:00 27,9 3,5 31,9 16,7 12,2 7 4 27 14 NNO 1020,5 30 60 0,0
20.04.2018 15:00:00 27,5 3,9 29,5 16,2 12,2 8 5 23 12 N 1021,2 30 60 0,0
20.04.2018 14:00:00 26,1 6,7 27,6 15,8 12,2 8 4 17 9 N 1021,9 30 60 0,0
20.04.2018 13:00:00 25,1 5,8 28,3 15,4 12,2 4 2 13 7 NW 1022,6 30 60 0,0
20.04.2018 12:00:00 23,7 6,5 26,2 15,2 12,2 3 2 10 5 ZO 1023,0 30 60 0,0
20.04.2018 11:00:00 21,0 6,9 23,1 15,1 12,1 6 3 14 8 OZO 1023,6 30 60 0,0

tt = temperatuur
td = dauwpunt
tt 5cm = temperatuur 5cm
tt -20cm = temperatuur -20cm
tt -100cm = temperatuur -100cm
ff = windsnelheid
fx = windstoten
dd = windrichting
ppp = luchtdruk
vv = zicht
sd = Zonneschijnduur
rr = neerslag

Weerstations in de omgeving